Time,TemperatureF,DewpointF,PressureIn,WindDirection,WindDirectionDegrees,WindSpeedMPH,WindSpeedGustMPH,Humidity,HourlyPrecipIn,Conditions,Clouds,dailyrainin,SoftwareType,DateUTC
2013-12-21 11:51:00,40.3,38.4,29.76,ESE,112,2.2,-999.0,93,-99.99,,,0.04,Acu-Link.com,2013-12-21 16:51:00,
2013-12-21 12:06:00,39.9,38.3,29.76,ESE,112,2.7,-999.0,94,-99.99,,,0.06,Acu-Link.com,2013-12-21 17:06:00,
2013-12-21 12:21:00,39.9,38.3,29.75,ESE,112,2.2,-999.0,94,-99.99,,,0.07,Acu-Link.com,2013-12-21 17:21:00,
2013-12-21 12:36:00,39.6,38.3,29.75,ESE,112,2.2,-999.0,95,-99.99,,,0.08,Acu-Link.com,2013-12-21 17:36:00,
2013-12-21 12:52:00,39.4,38.1,29.74,ESE,112,2.2,-999.0,95,-99.99,,,0.12,Acu-Link.com,2013-12-21 17:52:00,
2013-12-21 13:07:00,39.2,37.9,29.74,ESE,112,4.2,-999.0,95,-99.99,,,0.13,Acu-Link.com,2013-12-21 18:07:00,
2013-12-21 13:22:00,39.4,38.4,29.74,ESE,112,2.7,-999.0,96,-99.99,,,0.15,Acu-Link.com,2013-12-21 18:22:00,
2013-12-21 13:37:00,39.6,38.6,29.73,SE,135,2.2,-999.0,96,-99.99,,,0.17,Acu-Link.com,2013-12-21 18:37:00,
2013-12-21 13:52:00,39.6,38.6,29.73,ENE,67,1.1,-999.0,96,-99.99,,,0.20,Acu-Link.com,2013-12-21 18:52:00,
2013-12-21 14:07:00,39.6,38.6,29.73,ESE,112,2.2,-999.0,96,-99.99,,,0.22,Acu-Link.com,2013-12-21 19:07:00,
2013-12-21 14:22:00,39.2,38.2,29.73,ESE,112,0.0,-999.0,96,-99.99,,,0.28,Acu-Link.com,2013-12-21 19:22:00,
2013-12-21 14:37:00,39.2,38.4,29.74,ESE,112,1.7,-999.0,97,-99.99,,,0.32,Acu-Link.com,2013-12-21 19:37:00,
2013-12-21 14:52:00,39.0,38.2,29.73,ESE,112,2.7,-999.0,97,-99.99,,,0.36,Acu-Link.com,2013-12-21 19:52:00,
2013-12-21 15:07:00,38.8,38.0,29.73,SSE,157,0.0,-999.0,97,-99.99,,,0.41,Acu-Link.com,2013-12-21 20:07:00,
2013-12-21 15:23:00,38.5,37.7,29.72,East,90,0.0,-999.0,97,-99.99,,,0.41,Acu-Link.com,2013-12-21 20:23:00,
2013-12-21 15:38:00,38.8,38.0,29.73,SSE,157,1.7,-999.0,97,-99.99,,,0.42,Acu-Link.com,2013-12-21 20:38:00,
2013-12-21 15:53:00,38.8,38.0,29.74,ESE,112,0.0,-999.0,97,-99.99,,,0.42,Acu-Link.com,2013-12-21 20:53:00,
2013-12-21 16:08:00,38.7,38.2,29.74,ESE,112,0.0,-999.0,98,-99.99,,,0.42,Acu-Link.com,2013-12-21 21:08:00,
2013-12-21 16:23:00,38.5,38.0,29.74,South,180,0.0,-999.0,98,-99.99,,,0.43,Acu-Link.com,2013-12-21 21:23:00,
2013-12-21 16:38:00,38.7,38.2,29.74,SE,135,0.0,-999.0,98,-99.99,,,0.46,Acu-Link.com,2013-12-21 21:38:00,
2013-12-21 16:53:00,38.5,38.0,29.73,WNW,292,1.7,-999.0,98,-99.99,,,0.48,Acu-Link.com,2013-12-21 21:53:00,
2013-12-21 17:08:00,38.3,37.8,29.74,ESE,112,2.7,-999.0,98,-99.99,,,0.49,Acu-Link.com,2013-12-21 22:08:00,
2013-12-21 17:23:00,38.1,37.6,29.74,SSW,202,0.0,-999.0,98,-99.99,,,0.50,Acu-Link.com,2013-12-21 22:23:00,
2013-12-21 17:39:00,37.6,37.1,29.73,ESE,112,0.0,-999.0,98,-99.99,,,0.52,Acu-Link.com,2013-12-21 22:39:00,
2013-12-21 17:54:00,37.6,37.3,29.72,ESE,112,0.0,-999.0,99,-99.99,,,0.55,Acu-Link.com,2013-12-21 22:54:00,
2013-12-21 18:09:00,38.3,38.0,29.72,East,90,0.0,-999.0,99,-99.99,,,0.56,Acu-Link.com,2013-12-21 23:09:00,
2013-12-21 18:24:00,37.9,37.6,29.75,NW,315,3.7,-999.0,99,-99.99,,,0.62,Acu-Link.com,2013-12-21 23:24:00,
2013-12-21 18:39:00,39.6,39.3,29.74,ESE,112,2.7,-999.0,99,-99.99,,,0.69,Acu-Link.com,2013-12-21 23:39:00,
2013-12-21 18:54:00,39.7,39.4,29.72,ESE,112,2.2,-999.0,99,-99.99,,,0.75,Acu-Link.com,2013-12-21 23:54:00,
2013-12-21 19:09:00,41.9,41.6,29.71,NE,45,2.2,-999.0,99,-99.99,,,0.79,Acu-Link.com,2013-12-22 00:09:00,
2013-12-21 19:24:00,41.5,41.2,29.71,ESE,112,1.7,-999.0,99,-99.99,,,0.80,Acu-Link.com,2013-12-22 00:24:00,
2013-12-21 19:39:00,41.2,40.9,29.71,ENE,67,1.7,-999.0,99,-99.99,,,0.80,Acu-Link.com,2013-12-22 00:39:00,
2013-12-21 19:55:00,40.6,40.3,29.70,ESE,112,2.2,-999.0,99,-99.99,,,0.80,Acu-Link.com,2013-12-22 00:55:00,
2013-12-21 20:10:00,40.3,40.0,29.70,ESE,112,2.2,-999.0,99,-99.99,,,0.80,Acu-Link.com,2013-12-22 01:10:00,
2013-12-21 20:25:00,40.3,40.0,29.69,ESE,112,2.2,-999.0,99,-99.99,,,0.80,Acu-Link.com,2013-12-22 01:25:00,
2013-12-21 20:40:00,40.3,40.0,29.69,East,90,0.0,-999.0,99,-99.99,,,0.80,Acu-Link.com,2013-12-22 01:40:00,
2013-12-21 20:55:00,39.6,39.3,29.69,West,270,0.0,-999.0,99,-99.99,,,0.80,Acu-Link.com,2013-12-22 01:55:00,
2013-12-21 21:10:00,39.2,38.9,29.69,ESE,112,0.0,-999.0,99,-99.99,,,0.80,Acu-Link.com,2013-12-22 02:10:00,
2013-12-21 21:25:00,39.0,38.7,29.69,East,90,0.0,-999.0,99,-99.99,,,0.80,Acu-Link.com,2013-12-22 02:25:00,
2013-12-21 21:40:00,38.7,38.4,29.68,WSW,247,0.0,-999.0,99,-99.99,,,0.80,Acu-Link.com,2013-12-22 02:40:00,
2013-12-21 21:55:00,39.6,39.3,29.70,ESE,112,0.0,-999.0,99,-99.99,,,0.80,Acu-Link.com,2013-12-22 02:55:00,
2013-12-21 22:11:00,38.7,38.4,29.70,ENE,67,0.0,-999.0,99,-99.99,,,0.80,Acu-Link.com,2013-12-22 03:11:00,
2013-12-21 22:26:00,38.8,38.5,29.70,NNE,22,0.0,-999.0,99,-99.99,,,0.80,Acu-Link.com,2013-12-22 03:26:00,
2013-12-21 22:41:00,38.7,38.4,29.69,NNE,22,0.0,-999.0,99,-99.99,,,0.81,Acu-Link.com,2013-12-22 03:41:00,
2013-12-21 22:56:00,38.5,38.2,29.69,East,90,2.2,-999.0,99,-99.99,,,0.81,Acu-Link.com,2013-12-22 03:56:00,
2013-12-21 23:11:00,38.8,38.5,29.69,West,270,0.0,-999.0,99,-99.99,,,0.82,Acu-Link.com,2013-12-22 04:11:00,
2013-12-21 23:26:00,38.7,38.4,29.68,ENE,67,2.2,-999.0,99,-99.99,,,0.82,Acu-Link.com,2013-12-22 04:26:00,
2013-12-21 23:41:00,38.8,38.5,29.67,East,90,0.0,-999.0,99,-99.99,,,0.83,Acu-Link.com,2013-12-22 04:41:00,
2013-12-21 23:56:00,38.3,38.0,29.66,East,90,0.0,-999.0,99,-99.99,,,0.83,Acu-Link.com,2013-12-22 04:56:00,